GW2543 Weather Reports


Display with metric or nautical units.
time (UTC)temp
F
wind
direction
speed
MPH
gust
MPH
rain 1hr
in
rain 24hr
in
rain mn
in
humidity
%
barometer
mb
20260505210315 78 259 2.0 2.0 0.00 0.00 0.00 45 1008.4
20260505205812 76 254 0.0 2.0 0.00 0.00 0.00 46 1008.4
20260505205310 76 256 2.0 3.0 0.00 0.00 0.00 48 1008.4
20260505204807 77 241 1.0 2.0 0.00 0.00 0.00 47 1008.5
20260505204305 76 235 2.0 2.0 0.00 0.00 0.00 47 1008.4
20260505203802 75 222 1.0 3.0 0.00 0.00 0.00 48 1008.6
20260505203259 75 262 1.0 2.0 0.00 0.00 0.00 48 1008.6
20260505202754 75 138 1.0 2.0 0.00 0.00 0.00 49 1008.9
20260505202251 75 256 1.0 2.0 0.00 0.00 0.00 49 1008.9
20260505201747 74 251 0.0 2.0 0.00 0.00 0.00 49 1009.1
20260505201245 74 217 1.0 2.0 0.00 0.00 0.00 50 1009.0
20260505200743 73 229 2.0 2.0 0.00 0.00 0.00 50 1009.3
20260505200240 73 267 0.0 2.0 0.00 0.00 0.00 51 1009.2
20260505195735 73 82 0.0 2.0 0.00 0.00 0.00 52 1009.3
20260505195233 73 230 1.0 2.0 0.00 0.00 0.00 52 1009.2
20260505194730 72 253 2.0 3.0 0.00 0.00 0.00 52 1009.4
20260505194227 72 253 1.0 2.0 0.00 0.00 0.00 53 1009.5
20260505193722 72 60 1.0 2.0 0.00 0.00 0.00 53 1009.6
20260505193220 71 272 0.0 2.0 0.00 0.00 0.00 53 1009.5
20260505192718 71 247 2.0 2.0 0.00 0.00 0.00 54 1009.6
20260505192216 71 296 1.0 2.0 0.00 0.00 0.00 54 1009.6
20260505191714 71 158 0.0 3.0 0.00 0.00 0.00 55 1009.8
20260505191212 71 246 1.0 2.0 0.00 0.00 0.00 55 1009.9
20260505190708 70 254 1.0 3.0 0.00 0.00 0.00 55 1009.9
20260505190207 70 241 2.0 6.0 0.00 0.00 0.00 56 1010.0
20260505185704 70 268 1.0 3.0 0.00 0.00 0.00 56 1009.9
20260505185201 70 254 0.0 1.0 0.00 0.00 0.00 57 1010.1
20260505184657 68 227 1.0 1.0 0.00 0.00 0.00 58 1010.1
20260505184154 68 99 5.0 5.0 0.00 0.00 0.00 58 1010.1
20260505183651 68 349 2.0 5.0 0.00 0.00 0.00 60 1010.2
20260505183149 67 93 2.0 3.0 0.00 0.00 0.00 60 1010.3
20260505182645 66 304 1.0 6.0 0.00 0.00 0.00 60 1010.6
20260505182142 66 77 0.0 2.0 0.00 0.00 0.00 62 1010.5
20260505181638 66 82 4.0 5.0 0.00 0.00 0.00 61 1010.3
20260505181136 66 279 3.0 5.0 0.00 0.00 0.00 62 1010.4
20260505180632 68 195 2.0 3.0 0.00 0.00 0.00 59 1010.6
20260505180129 68 218 2.0 3.0 0.00 0.00 0.00 59 1010.4
20260505175625 65 118 2.0 3.0 0.00 0.00 0.00 62 1010.7
20260505175122 67 109 4.0 6.0 0.00 0.00 0.00 61 1010.7
20260505174618 65 279 0.0 2.0 0.00 0.00 0.00 64 1010.9
20260505174114 64 81 2.0 3.0 0.00 0.00 0.00 63 1010.7
20260505173611 66 100 3.0 6.0 0.00 0.00 0.00 61 1010.6
20260505173108 63 178 1.0 3.0 0.00 0.00 0.00 65 1010.6
20260505172606 63 72 3.0 5.0 0.00 0.00 0.00 66 1010.8
20260505172103 62 141 3.0 3.0 0.00 0.00 0.00 67 1010.8
20260505171557 62 100 2.0 2.0 0.00 0.00 0.00 68 1011.1
20260505171054 62 242 0.0 1.0 0.00 0.00 0.00 69 1011.0
20260505170551 62 266 0.0 1.0 0.00 0.00 0.00 69 1010.8
20260505170047 61 223 2.0 2.0 0.00 0.00 0.00 69 1010.9
20260505165542 62 270 0.0 1.0 0.00 0.00 0.00 68 1010.9
20260505165039 61 268 1.0 1.0 0.00 0.00 0.00 70 1010.9
20260505164535 61 262 1.0 1.0 0.00 0.00 0.00 69 1010.9
20260505164032 61 267 0.0 1.0 0.00 0.00 0.00 69 1011.1
20260505163531 61 282 0.0 1.0 0.00 0.00 0.00 70 1011.0
20260505163027 60 269 0.0 1.0 0.00 0.00 0.00 72 1011.1
20260505162521 60 212 0.0 1.0 0.00 0.00 0.00 73 1011.1
20260505162018 60 323 0.0 1.0 0.00 0.00 0.00 73 1011.1
20260505161515 60 124 1.0 2.0 0.00 0.00 0.00 74 1011.1
20260505161012 59 289 1.0 1.0 0.00 0.00 0.00 74 1011.2
20260505160510 59 304 0.0 1.0 0.00 0.00 0.00 74 1011.1
20260505152940 59 270 0.0 1.0 0.00 0.00 0.00 76 1011.1
20260505152437 59 278 0.0 1.0 0.00 0.00 0.00 76 1011.0
20260505151937 59 289 0.0 1.0 0.00 0.00 0.00 78 1011.1
20260505151428 59 299 0.0 1.0 0.00 0.00 0.00 77 1011.2
20260505150925 59 284 0.0 0.0 0.00 0.00 0.00 77 1011.1
20260505150422 58 284 0.0 0.0 0.00 0.00 0.00 77 1011.0
20260505140352 58 280 0.0 0.0 0.00 0.00 0.00 79 1010.6
20260505124805 57 270 0.0 1.0 0.00 0.00 0.00 81 1010.0
20260505124303 57 270 0.0 0.0 0.00 0.00 0.00 81 1009.8
20260505123758 57 270 0.0 0.0 0.00 0.00 0.00 81 1009.9
20260505123255 57 270 0.0 0.0 0.00 0.00 0.00 80 1009.9
20260505122751 57 270 0.0 0.0 0.00 0.00 0.00 80 1009.7
20260505122249 57 270 0.0 0.0 0.00 0.00 0.00 80 1009.7
20260505121745 57 270 0.0 0.0 0.00 0.00 0.00 80 1009.6
20260505121242 57 270 0.0 0.0 0.00 0.00 0.00 80 1009.7
20260505120738 57 270 0.0 1.0 0.00 0.00 0.00 80 1009.6
20260505120235 57 270 0.0 1.0 0.00 0.00 0.00 80 1009.7
20260505115733 57 270 0.0 1.0 0.00 0.00 0.00 80 1009.5
20260505115231 57 270 0.0 1.0 0.00 0.00 0.00 80 1009.5
20260505114728 57 270 0.0 1.0 0.00 0.00 0.00 80 1009.5
20260505114224 57 270 0.0 1.0 0.00 0.00 0.00 80 1009.4
20260505113721 57 270 0.0 0.0 0.00 0.00 0.00 80 1009.5
20260505113217 57 270 0.0 0.0 0.00 0.00 0.00 80 1009.4
20260505112714 57 270 0.0 0.0 0.00 0.00 0.00 80 1009.4
20260505112212 57 270 0.0 0.0 0.00 0.00 0.00 80 1009.3
20260505111712 57 270 0.0 1.0 0.00 0.00 0.00 79 1009.5
20260505111208 57 270 0.0 0.0 0.00 0.00 0.00 80 1009.4
20260505110704 57 271 0.0 0.0 0.00 0.00 0.00 79 1009.2
20260505110201 57 270 0.0 0.0 0.00 0.00 0.00 79 1009.4
20260505102137 58 270 0.0 1.0 0.00 0.00 0.00 79 1009.2
20260505101636 58 270 0.0 0.0 0.00 0.00 0.00 78 1009.1
20260505101131 58 270 0.0 0.0 0.00 0.00 0.00 79 1009.2
20260505100627 58 269 0.0 0.0 0.00 0.00 0.00 79 1009.3
20260505100125 58 271 0.0 0.0 0.00 0.00 0.00 79 1009.2
20260505095621 58 271 0.0 1.0 0.00 0.00 0.00 79 1009.1
20260505095118 58 271 0.0 0.0 0.00 0.00 0.00 79 1009.2
20260505094614 58 271 0.0 0.0 0.00 0.00 0.00 79 1009.1
20260505094110 58 271 0.0 1.0 0.00 0.00 0.00 79 1009.2
20260505093607 58 269 0.0 1.0 0.00 0.00 0.00 79 1009.2
20260505093104 58 269 0.0 1.0 0.00 0.00 0.00 79 1009.3
20260505092601 58 269 1.0 1.0 0.00 0.00 0.00 79 1009.3
20260505092100 58 268 1.0 1.0 0.00 0.00 0.00 79 1009.3
20260505091556 58 278 0.0 1.0 0.00 0.00 0.00 79 1009.2
20260505091055 59 279 0.0 0.0 0.00 0.00 0.00 79 1009.3
20260505090552 59 277 0.0 0.0 0.00 0.00 0.00 78 1009.2
20260505090050 59 277 0.0 0.0 0.00 0.00 0.00 78 1009.3
20260505085547 59 278 0.0 0.0 0.00 0.00 0.00 78 1009.1
20260505085045 59 278 0.0 0.0 0.00 0.00 0.00 78 1009.1
20260505084543 59 279 0.0 0.0 0.00 0.00 0.00 78 1009.3
20260505084041 59 279 0.0 1.0 0.00 0.00 0.00 79 1009.3
20260505083538 59 278 0.0 1.0 0.00 0.00 0.00 78 1009.3
20260505083034 59 278 0.0 1.0 0.00 0.00 0.00 79 1009.6
20260505082530 59 277 1.0 1.0 0.00 0.00 0.00 78 1009.5
20260505082027 59 278 0.0 0.0 0.00 0.00 0.00 79 1009.4
20260505081524 59 278 0.0 0.0 0.00 0.00 0.00 79 1009.5
20260505081021 59 278 0.0 1.0 0.00 0.00 0.00 79 1009.2
20260505080517 59 279 1.0 1.0 0.00 0.00 0.00 78 1009.4
20260505080014 59 267 1.0 1.0 0.00 0.00 0.00 78 1009.8
20260505075510 59 266 1.0 1.0 0.00 0.00 0.00 78 1009.5
20260505075007 59 271 0.0 1.0 0.00 0.00 0.00 79 1009.5
20260505074504 59 271 1.0 1.0 0.00 0.00 0.00 79 1009.5
20260505074001 59 267 0.0 1.0 0.00 0.00 0.00 79 1009.4
20260505073458 59 272 1.0 2.0 0.00 0.00 0.00 79 1009.4
20260505072956 59 278 0.0 1.0 0.00 0.00 0.00 79 1009.6
20260505072452 59 278 0.0 1.0 0.00 0.00 0.00 79 1009.6
20260505071948 59 283 1.0 2.0 0.00 0.00 0.00 78 1009.4
20260505071444 59 278 1.0 1.0 0.00 0.00 0.00 78 1009.3
20260505070942 60 291 0.0 1.0 0.00 0.00 0.00 78 1009.3
20260505070439 59 292 1.0 1.0 0.00 0.00 0.00 78 1009.4
20260505065934 59 291 0.0 1.0 0.00 0.00 0.00 78 1009.4
20260505065431 59 292 0.0 0.0 0.00 0.00 0.00 79 1009.2
20260505064928 59 292 0.0 0.0 0.00 0.00 0.00 80 1009.4
20260505064425 59 292 0.0 0.0 0.00 0.00 0.00 79 1009.2
20260505063923 59 292 0.0 0.0 0.00 0.00 0.00 79 1009.4
20260505063419 59 292 0.0 0.0 0.00 0.00 0.00 79 1008.9
20260505062916 59 292 0.0 0.0 0.00 0.00 0.00 79 1009.2
20260505062413 59 292 0.0 1.0 0.00 0.00 0.00 79 1008.9
20260505061910 59 293 1.0 1.0 0.00 0.00 0.00 79 1009.0
20260505061408 60 295 0.0 1.0 0.00 0.00 0.00 78 1008.8
20260505060905 60 295 0.0 0.0 0.00 0.00 0.00 77 1009.0
20260505060402 60 296 0.0 0.0 0.00 0.00 0.00 77 1008.9
20260505055858 60 295 0.0 0.0 0.00 0.00 0.00 77 1009.0
20260505055354 60 295 0.0 0.0 0.00 0.00 0.00 77 1008.8
20260505054851 61 296 0.0 0.0 0.00 0.00 0.00 77 1009.0
20260505054349 61 296 0.0 1.0 0.00 0.00 0.00 75 1008.7
20260505053847 61 296 0.0 0.0 0.00 0.00 0.00 75 1008.6
20260505053344 61 294 0.0 1.0 0.00 0.00 0.00 75 1008.6
20260505052840 61 293 0.0 0.0 0.00 0.00 0.00 75 1008.5
20260505052337 62 288 1.0 1.0 0.00 0.00 0.00 75 1008.6
20260505051834 62 289 0.0 0.0 0.00 0.00 0.00 74 1008.5
20260505051332 62 290 0.0 0.0 0.00 0.00 0.00 74 1008.7
20260505050830 62 290 0.0 0.0 0.00 0.00 0.00 74 1008.5
20260505050328 62 261 0.0 1.0 0.00 0.00 0.00 73 1008.3
20260505041758 65 277 1.0 1.0 0.00 0.00 0.00 69 1007.7
20260505041255 65 268 1.0 2.0 0.00 0.00 0.00 68 1007.4
20260505040752 66 264 0.0 1.0 0.00 0.00 0.00 67 1007.4
20260505040250 66 280 0.0 1.0 0.00 0.00 0.00 67 1007.1
20260505035746 66 276 0.0 1.0 0.00 0.00 0.00 67 1007.1
20260505035242 66 292 0.0 1.0 0.00 0.00 0.00 67 1006.9
20260505034739 67 266 1.0 2.0 0.00 0.00 0.00 66 1006.8
20260505034236 67 258 2.0 3.0 0.00 0.00 0.00 65 1006.7
20260505033733 67 277 1.0 1.0 0.00 0.00 0.00 65 1006.7
20260505033231 67 264 1.0 1.0 0.00 0.00 0.00 65 1006.7
20260505032728 68 281 1.0 2.0 0.00 0.00 0.00 64 1006.5
20260505032224 68 264 3.0 5.0 0.00 0.00 0.00 63 1006.2
20260505031722 68 285 2.0 2.0 0.00 0.00 0.00 63 1006.3
20260505031218 69 298 1.0 3.0 0.00 0.00 0.00 64 1006.0
20260505030715 69 281 1.0 1.0 0.00 0.00 0.00 62 1006.1
20260505030211 69 300 0.0 0.0 0.00 0.00 0.00 61 1005.8
20260505025707 69 339 2.0 2.0 0.00 0.00 0.00 61 1005.8
20260505025205 70 290 0.0 0.0 0.00 0.00 0.00 61 1005.6
20260505024703 70 286 2.0 2.0 0.00 0.00 0.00 61 1005.7
20260505024200 70 287 0.0 1.0 0.00 0.00 0.00 60 1005.7
20260505023657 71 289 0.0 1.0 0.00 0.00 0.00 59 1005.7
20260505023154 71 291 1.0 2.0 0.00 0.00 0.00 58 1005.5
20260505022652 71 295 0.0 1.0 0.00 0.00 0.00 58 1005.2
20260505022149 71 291 1.0 1.0 0.00 0.00 0.00 58 1005.2
20260505021645 71 277 1.0 1.0 0.00 0.00 0.00 58 1005.2
20260505021142 71 292 1.0 1.0 0.00 0.00 0.00 59 1005.1
20260505020638 71 284 0.0 1.0 0.00 0.00 0.00 59 1005.1
20260505020134 71 281 0.0 2.0 0.00 0.00 0.00 59 1005.0
20260505015631 71 284 2.0 2.0 0.00 0.00 0.00 60 1005.2
20260505015128 71 288 1.0 2.0 0.00 0.00 0.00 60 1005.1
20260505014625 71 309 1.0 2.0 0.00 0.00 0.00 60 1005.0
20260505014122 72 298 0.0 2.0 0.00 0.00 0.00 60 1005.1
20260505013619 72 277 1.0 1.0 0.00 0.00 0.00 59 1005.0
20260505013116 72 284 1.0 2.0 0.00 0.00 0.00 59 1004.9
20260505012615 73 290 0.0 1.0 0.00 0.00 0.00 58 1004.9
20260505012111 73 315 0.0 1.0 0.00 0.00 0.00 57 1004.9
20260505011606 73 284 0.0 1.0 0.00 0.00 0.00 58 1005.0
20260505011104 73 279 0.0 2.0 0.00 0.00 0.00 57 1004.9
20260505010559 74 293 0.0 1.0 0.00 0.00 0.00 57 1004.7
20260505010056 74 283 0.0 1.0 0.00 0.00 0.00 57 1004.8
20260505005552 75 308 0.0 1.0 0.00 0.00 0.00 55 1004.7
20260505005049 74 256 1.0 1.0 0.00 0.00 0.00 56 1004.7
20260505004546 75 283 0.0 1.0 0.00 0.00 0.00 55 1004.7
20260505004043 75 273 0.0 1.0 0.00 0.00 0.00 56 1004.6
20260505003541 75 305 0.0 1.0 0.00 0.00 0.00 54 1004.6
20260505003038 75 273 0.0 2.0 0.00 0.00 0.00 54 1004.4
20260505002537 76 280 0.0 1.0 0.00 0.00 0.00 54 1004.5
20260505002032 76 289 0.0 2.0 0.00 0.00 0.00 53 1004.6
20260505001528 77 302 1.0 2.0 0.00 0.00 0.00 54 1004.5
20260505001025 77 294 0.0 3.0 0.00 0.00 0.00 53 1004.5
20260505000523 76 257 1.0 2.0 0.00 0.00 0.00 53 1004.4
20260505000020 76 111 2.0 3.0 0.00 0.00 0.00 52 1004.4
20260504235517 76 110 1.0 3.0 0.00 0.00 0.00 55 1004.2
20260504235013 76 284 1.0 2.0 0.00 0.00 0.00 54 1004.3
20260504234511 77 278 0.0 0.0 0.00 0.00 0.00 54 1004.2
20260504234008 77 287 2.0 2.0 0.00 0.00 0.00 55 1004.4
20260504233503 78 272 1.0 2.0 0.00 0.00 0.00 52 1004.3
20260504233000 78 247 1.0 1.0 0.00 0.00 0.00 52 1004.4
20260504232457 79 290 1.0 1.0 0.00 0.00 0.00 50 1004.3
20260504231955 79 5 0.0 1.0 0.00 0.00 0.00 50 1004.2
20260504231450 79 315 1.0 3.0 0.00 0.00 0.00 48 1004.2
20260504230947 80 283 3.0 3.0 0.00 0.00 0.00 49 1004.2
20260504230444 79 284 0.0 1.0 0.00 0.00 0.00 48 1004.2
20260504225943 79 298 2.0 2.0 0.00 0.00 0.00 51 1004.3
20260504225439 80 210 0.0 1.0 0.00 0.00 0.00 47 1004.2
20260504224936 80 286 1.0 2.0 0.00 0.00 0.00 45 1004.5
20260504224433 80 289 1.0 3.0 0.00 0.00 0.00 47 1004.3
20260504223930 80 73 3.0 3.0 0.00 0.00 0.00 44 1004.6
20260504223425 81 83 3.0 5.0 0.00 0.00 0.00 44 1004.5
20260504222921 81 244 2.0 3.0 0.00 0.00 0.00 43 1004.9
20260504222419 82 112 3.0 3.0 0.00 0.00 0.00 44 1004.6
20260504221917 82 102 2.0 5.0 0.00 0.00 0.00 46 1004.8
20260504221414 82 303 0.0 5.0 0.00 0.00 0.00 46 1004.5
20260504220911 82 281 0.0 2.0 0.00 0.00 0.00 47 1004.8
20260504220407 82 275 0.0 2.0 0.00 0.00 0.00 45 1005.0
20260504215905 83 270 1.0 1.0 0.00 0.00 0.00 46 1004.9
20260504215401 82 300 1.0 1.0 0.00 0.00 0.00 45 1004.7
20260504214857 83 273 0.0 1.0 0.00 0.00 0.00 45 1005.0
20260504214354 82 253 0.0 2.0 0.00 0.00 0.00 45 1004.9
20260504213851 82 271 1.0 2.0 0.00 0.00 0.00 45 1005.1
20260504213347 82 263 1.0 1.0 0.00 0.00 0.00 45 1005.2
20260504212844 82 296 0.0 1.0 0.00 0.00 0.00 47 1005.3
20260504212340 81 262 0.0 2.0 0.00 0.00 0.00 47 1005.3
20260504211838 80 110 3.0 3.0 0.00 0.00 0.00 46 1005.3
20260504211334 81 348 1.0 2.0 0.00 0.00 0.00 47 1005.5
20260504210832 81 309 0.0 2.0 0.00 0.00 0.00 47 1005.6